ONEWEB-0350 (49214 NORAD) Tracking and Keplerian Element Data

This shows tracking and keplerian element data for the satellite.

Feedback or suggestion? Click here.




ElementValue
Catalog49214
NameONEWEB-0350
Epoch Orbit361
Epoch Day287.91667824
Epoch Year2021
RAAN317.5703
Inclination87.2143
Eccentricity0.0017579
Argument of Perigee187.0209
Mean Anonmoly102.6247
Mean Motion14.91529898
Decay Rate-0.0130711
L11 49214U 21083AE 21287.91667824 -.01307110 00000-0 -14136+0 0 9996
L22 49214 87.2143 317.5703 0017579 187.0209 102.6247 14.91529898 3617

Live tracking and technical data element details for ONEWEB-0350 (NORAD 49214). ONEWEB-0350 can be tracked NOW for your location showing map with azimuth and elevation plus other details from your city location.

Track the satellite on the map from your city or location and see movement details for azimuth, elevation, latitude, longitude, range, height, and movement on the map or in text.







IsCatalogInMostPopularTable: catalog: 49214, numindb: 12
Update: records affected: 1



GetName: 49214 ONEWEB-0350

Hit Count: updated at: Tue, 19 Oct 2021 09:11:09 GMT